DB0DUS-10 Weather Reports


Display with metric or nautical units.
time (UTC)temp
F
wind
direction
speed
MPH
gust
MPH
rain 1hr
in
rain 24hr
in
rain mn
in
humidity
%
barometer
mb
20260502123809 92 253 7.0 9.0 0.00 0.00 0.00 23 1017.7
20260502122309 92 243 5.0 10.0 0.00 0.00 0.00 22 1017.9
20260502120809 87 246 4.0 11.0 0.00 0.00 0.00 28 1018.1
20260502115810 84 198 6.0 8.0 0.00 0.00 0.00 30 1018.3
20260502113809 84 199 5.0 11.0 0.00 0.00 0.00 30 1018.5
20260502113310 83 220 5.0 12.0 0.00 0.00 0.00 32 1018.6
20260502110809 83 161 3.0 12.0 0.00 0.00 0.00 31 1018.9
20260502104310 82 143 6.0 15.0 0.00 0.00 0.00 31 1019.2
20260502103809 82 180 8.0 10.0 0.00 0.00 0.00 31 1019.2
20260502101810 82 195 7.0 10.0 0.00 0.00 0.00 32 1019.3
20260502100809 80 222 7.0 8.0 0.00 0.00 0.00 33 1019.4
20260502090809 73 202 7.0 11.0 0.00 0.00 0.00 38 1020.0
20260502090310 73 161 6.0 12.0 0.00 0.00 0.00 37 1019.9
20260502070809 66 129 8.0 17.0 0.00 0.00 0.00 41 1019.9
20260502065810 65 161 11.0 16.0 0.00 0.00 0.00 43 1020.0
20260502063809 65 136 5.0 17.0 0.00 0.00 0.00 44 1020.0
20260502063310 64 144 12.0 17.0 0.00 0.00 0.00 45 1019.9
20260502060809 62 101 13.0 15.0 0.00 0.00 0.00 46 1019.7
20260502054310 61 154 8.0 16.0 0.00 0.00 0.00 48 1020.1
20260502053809 61 147 12.0 14.0 0.00 0.00 0.00 48 1020.1
20260502051810 59 118 9.0 14.0 0.00 0.00 0.00 50 1019.8
20260502050809 59 123 9.0 15.0 0.00 0.00 0.00 51 1019.8
20260502045310 58 133 9.0 15.0 0.00 0.00 0.00 52 1019.9
20260502043810 58 140 9.0 13.0 0.00 0.00 0.00 53 1019.8
20260502042810 58 149 9.0 15.0 0.00 0.00 0.00 53 1019.9
20260502040810 57 108 10.0 13.0 0.00 0.00 0.00 54 1019.9
20260502033810 57 170 8.0 14.0 0.00 0.00 0.00 54 1020.2
20260502031310 58 149 11.0 13.0 0.00 0.00 0.00 53 1020.3
20260502030810 58 139 8.0 12.0 0.00 0.00 0.00 53 1020.3
20260502024811 59 81 8.0 15.0 0.00 0.00 0.00 51 1020.4
20260502023810 59 116 5.0 15.0 0.00 0.00 0.00 51 1020.4
20260502022312 59 129 11.0 14.0 0.00 0.00 0.00 50 1020.5
20260502020810 60 127 9.0 12.0 0.00 0.00 0.00 49 1020.6
20260502015843 60 140 12.0 13.0 0.00 0.00 0.00 48 1020.6
20260502015811 60 140 12.0 13.0 0.00 0.00 0.00 48 1020.6
20260502013810 60 101 7.0 12.0 0.00 0.00 0.00 48 1020.7
20260502013311 60 111 9.0 12.0 0.00 0.00 0.00 48 1020.8
20260502010810 60 123 7.0 12.0 0.00 0.00 0.00 48 1021.1
20260502004311 61 125 7.0 12.0 0.00 0.00 0.00 47 1021.3
20260502003810 61 99 6.0 12.0 0.00 0.00 0.00 47 1021.3
20260502001811 61 142 9.0 11.0 0.00 0.00 0.00 46 1021.6
20260502000810 61 113 6.0 12.0 0.00 0.00 0.00 45 1021.7
20260501235311 62 132 6.0 12.0 0.00 0.00 0.00 44 1021.8
20260501233810 62 126 8.0 13.0 0.00 0.00 0.00 43 1021.9
20260501232811 63 132 8.0 14.0 0.00 0.00 0.00 43 1022.0
20260501230810 63 122 10.0 15.0 0.00 0.00 0.00 42 1021.9
20260501230311 63 126 8.0 13.0 0.00 0.00 0.00 42 1021.7
20260501223810 64 133 6.0 12.0 0.00 0.00 0.00 41 1022.0
20260501221312 64 105 8.0 11.0 0.00 0.00 0.00 40 1022.0
20260501220810 64 105 7.0 11.0 0.00 0.00 0.00 39 1022.1
20260501214812 65 126 8.0 11.0 0.00 0.00 0.00 38 1022.2
20260501213810 65 133 7.0 9.0 0.00 0.00 0.00 38 1022.3
20260501212312 65 109 5.0 11.0 0.00 0.00 0.00 37 1022.3
20260501210810 66 92 7.0 10.0 0.00 0.00 0.00 37 1022.5
20260501205811 66 111 5.0 11.0 0.00 0.00 0.00 36 1022.5
20260501203810 66 112 6.0 11.0 0.00 0.00 0.00 36 1022.6
20260501203311 66 94 6.0 11.0 0.00 0.00 0.00 36 1022.6
20260501200810 67 99 7.0 10.0 0.00 0.00 0.00 35 1022.6
20260501194311 68 113 6.0 8.0 0.00 0.00 0.00 33 1022.6
20260501193811 68 111 5.0 7.0 0.00 0.00 0.00 33 1022.6
20260501191811 69 144 2.0 8.0 0.00 0.00 0.00 31 1022.6
20260501190811 70 109 1.0 9.0 0.00 0.00 0.00 30 1022.5
20260501185312 71 105 8.0 9.0 0.00 0.00 0.00 29 1022.5
20260501183811 72 104 3.0 10.0 0.00 0.00 0.00 27 1022.5
20260501182811 72 74 7.0 12.0 0.00 0.00 0.00 26 1022.5
20260501180811 73 137 11.0 17.0 0.00 0.00 0.00 24 1022.5
20260501180311 73 94 12.0 17.0 0.00 0.00 0.00 24 1022.2
20260501173811 74 80 6.0 16.0 0.00 0.00 0.00 23 1022.3
20260501171312 75 88 5.0 18.0 0.00 0.00 0.00 22 1022.3
20260501170811 76 140 9.0 15.0 0.00 0.00 0.00 22 1022.4
20260501164812 76 49 9.0 21.0 0.00 0.00 0.00 21 1022.6
20260501163811 76 19 9.0 17.0 0.00 0.00 0.00 21 1022.6
20260501162312 77 70 8.0 13.0 0.00 0.00 0.00 21 1022.7
20260501160811 77 158 14.0 18.0 0.00 0.00 0.00 20 1022.8
20260501155813 77 136 15.0 24.0 0.00 0.00 0.00 20 1022.8
20260501153811 77 262 4.0 17.0 0.00 0.00 0.00 20 1023.0
20260501153312 77 258 3.0 21.0 0.00 0.00 0.00 19 1023.0
20260501150811 79 165 10.0 22.0 0.00 0.00 0.00 18 1023.3